Location: Evergreen Manor
(41.4083°N, 81.4939°W)
Time: 01:48:28
(UTC+00:00)

STARLINK 1015 - Pass Details

Date: 11 December 2019
Orbit: 347 x 352 km, 53.0° (Epoch: 25 January)

Event Time Altitude Azimuth Distance (km) Brightness Sun altitude
Exits shadow 11:12:11 45° 248° (WSW) 492 3.0 -16.2°
Maximum altitude 11:12:31 48° 223° (SW) 470 3.1 -16.2°
Drops below altitude 10° 11:15:16 11° 147° (SSE) 1,274 6.2 -15.7°
Sets 11:17:23 0° 141° (SE) 2,147 7.6 -15.3°
